Location: Home
(42.5358°N, 72.7383°W)
Time: 05:50:06
(UTC-05:00)

Courier 1B - Pass Details

Date: 09 December 2021
Orbit: 962 x 1209 km, 28.3° (Epoch: 25 January)

Event Time Altitude Azimuth Distance (km) Brightness Sun altitude
Rises 15:05:40 0° 238° (WSW) 4,103 12.7 9.7°
Reaches altitude 10° 15:09:03 10° 227° (SW) 3,130 15.3 9.2°
Maximum altitude 15:15:14 26° 174° (S) 2,123 9.9 8.4°
Drops below altitude 10° 15:21:16 10° 121° (ESE) 3,040 9.9 7.6°
Sets 15:24:30 0° 109° (ESE) 3,962 10.4 7.1°
